Find MMS 4

NORAD ID: 40485 Int'l Des: 2015-011 Owner: GSFC Country: US operational
HEOELLIPTICALHEO_ELLIPTICAL

Current View

Loading 3D Globe...

About MMS 4

MMS 4 (NORAD 40485) is a satellite launched Mar 13, 2015 by GSFC of US. It operates in HEO, ELLIPTICAL, HEO_ELLIPTICAL orbit with a mass of 1360.00 kg.

Upcoming Passes

Passes for default location (London). Set your location on the main map for personalized predictions.

Altitude History

Loading altitude history...

Two-Line Element Set

1 40485U 15011D 26194.66668981 -.00001456 00000-0 00000-0 0 9998
2 40485 72.5133 348.4276 8306067 168.0412 119.5091 0.28348559 1382
Epoch: Jul 13, 2026 • Age: 10 hours

Current Status

Altitude 171675.7 km
Apogee / Perigee N/A
Velocity 0.64 km/s
Sub-Earth Point -14.60°S, 24.31°E
Launch Date Mar 13, 2015
Age 11.3 years
Type other

Technical Details

Classification Payload
Mass 1360.00 kg
Dry Mass 1000.00 kg
Total Mass 1360.00 kg
Length 1.20 m
Diameter 3.60 m
Span 112.00 m
Shape Cylinder+antennae
Manufacturer GSFC
Bus Type MMS-SMART
Phase Status Deep Space
Owner/State GSFC/US

Most Searched